Location: Bryzozowice
(50.3667°N, 18.9667°E)
Time: 16:20:13
(UTC+00:00)

Cosmos 1242 Rocket - Pass Details

Date: 24 January 2020
Orbit: 449 x 487 km, 81.2° (Epoch: 18 February)

Event Time Altitude Azimuth Distance (km) Brightness Sun altitude
Rises 16:16:19 0° 201° (SSW) 2,476 6.8 -8.6°
Reaches altitude 10° 16:18:25 10° 206° (SSW) 1,612 5.9 -8.9°
Maximum altitude 16:21:53 54° 285° (WNW) 574 3.3 -9.4°
Drops below altitude 10° 16:25:25 10° 4° (N) 1,649 5.0 -10.0°
Sets 16:27:34 0° 9° (N) 2,539 5.9 -10.3°
